Temp
8 8 8 8 8 8 8 8 8 7 7 7 7 7 7 7 7 7 7 6 6 6 6 6 6 6 6 6 6 5 6 6 6
8 8 8 8 7 7 7 7 7 7 7 7 7 7 7 6 6 6 6 6 6 6 6 6 6 6 6 6 6 6 6 6 6
8 7 7 7 7 7 7 7 7 7 6 6 6 6 6 6 6 6 6 6 6 6 6 6 6 5 5 6 6 6 6 6 6
7 7 7 7 7 7 7 7 7 6 6 6 6 6 6 5 5 5 5 5 5 5 5 5 5 5 5 5 5 5 5 6 6
7 7 7 7 7 6 6 6 6 6 6 6 6 6 6 5 5 5 5 5 5 5 5 5 5 5 5 5 5 5 5 5 5
7 7 7 7 7 7 7 6 6 6 6 6 6 6 6 6 5 5 5 5 5 5 5 5 5 5 5 5 5 5 5 5 5
7 7 7 7 7 7 7 6 6 6 6 6 6 6 6 6 6 5 5 5 5 5 5 5 5 5 5 5 5 5 5 5 5
7 7 7 7 7 7 7 7 7 6 6 6 6 6 6 6 5 5 5 5 5 5 5 5 4 4 4 4 4 4 5 4 4
7 7 7 7 7 7 7 7 7 6 6 6 6 6 6 5 5 5 5 5 5 5 5 5 4 4 4 4 4 4 4 4 4
7 7 7 7 7 7 7 7 6 6 6 6 6 6 5 5 5 5 5 5 5 5 4 4 4 4 4 4 4 4 4 4 4
7 7 7 7 7 7 7 6 6 6 6 6 6 5 5 5 5 5 5 4 4 4 4 4 4 4 4 4 4 4 4 4 4
7 7 7 7 7 7 6 6 6 6 6 6 6 5 5 5 5 5 4 4 4 4 4 4 4 4 4 4 4 3 3 3 3
7 7 7 7 7 6 6 6 6 6 5 5 5 5 5 5 5 4 4 4 4 4 4 3 3 3 3 3 3 3 3 3 3
7 7 7 6 6 6 6 6 5 5 5 5 5 5 5 4 4 4 4 4 4 3 3 3 3 3 3 3 3 3 3 3 2
7 6 6 6 6 6 6 5 5 5 5 5 5 4 4 4 4 4 3 3 3 3 3 3 3 2 2 2 2 2 1 1 2
6 6 6 6 6 5 5 5 5 5 5 5 4 4 4 4 3 3 3 3 3 3 3 3 2 2 2 2 2 2 1 1 1
6 5 5 5 5 5 5 5 5 5 4 4 4 4 4 4 3 3 3 3 3 3 2 2 2 2 2 2 2 1 1 1 1
5 5 5 5 5 5 5 4 4 4 4 4 4 4 4 4 4 4 4 3 3 3 3 2 2 2 2 2 2 1 1 -0 -0
5 5 5 5 5 5 5 4 4 4 4 4 4 3 3 3 3 4 4 3 3 3 3 2 2 2 2 1 1 1 1 0 -0
5 5 5 5 5 5 5 4 4 4 4 4 4 3 3 3 3 3 2 3 3 3 3 2 2 2 2 2 1 1 0 0 -0
Height
3200 3200 3201 3201 3201 3201 3201 3200 3200 3200 3199 3199 3199 3199 3198 3198 3197 3196 3195 3194 3193 3193 3192 3191 3190 3189 3188 3187 3186 3185 3184 3183 3182
3202 3202 3203 3203 3203 3202 3202 3202 3202 3202 3202 3201 3201 3200 3200 3199 3198 3197 3196 3195 3194 3193 3192 3191 3190 3189 3188 3187 3186 3185 3184 3183 3182
3204 3204 3204 3204 3205 3204 3204 3204 3203 3203 3203 3203 3202 3202 3201 3200 3200 3199 3198 3197 3196 3195 3194 3192 3191 3190 3189 3187 3186 3185 3184 3182 3181
3206 3206 3206 3206 3206 3206 3206 3206 3206 3205 3205 3204 3204 3204 3203 3202 3201 3200 3199 3198 3197 3196 3194 3193 3191 3190 3189 3187 3186 3185 3184 3182 3181
3208 3207 3207 3208 3208 3208 3208 3208 3207 3207 3206 3206 3205 3205 3204 3203 3202 3201 3200 3198 3197 3196 3194 3193 3191 3190 3189 3187 3186 3185 3184 3183 3182
3208 3209 3209 3209 3209 3209 3209 3209 3208 3207 3207 3207 3206 3205 3205 3204 3203 3201 3200 3199 3197 3196 3194 3193 3191 3190 3188 3187 3186 3185 3184 3182 3181
3209 3209 3209 3210 3210 3210 3209 3209 3208 3208 3207 3207 3206 3205 3205 3204 3202 3201 3200 3198 3197 3195 3194 3192 3191 3189 3188 3186 3185 3184 3183 3181 3179
3209 3209 3209 3209 3209 3209 3209 3208 3208 3208 3207 3206 3205 3205 3204 3203 3201 3200 3199 3198 3196 3194 3193 3191 3189 3188 3187 3186 3184 3183 3181 3179 3178
3207 3208 3207 3207 3207 3207 3207 3207 3207 3206 3206 3205 3204 3203 3202 3201 3199 3199 3197 3196 3194 3192 3191 3189 3187 3186 3185 3184 3182 3181 3179 3177 3176
3205 3205 3205 3205 3205 3205 3205 3205 3205 3204 3204 3203 3202 3202 3201 3199 3197 3196 3195 3193 3192 3190 3188 3187 3185 3184 3182 3181 3180 3178 3177 3175 3174
3202 3202 3202 3203 3203 3203 3203 3203 3202 3202 3202 3201 3200 3199 3198 3197 3195 3194 3192 3190 3189 3187 3185 3184 3182 3181 3179 3178 3176 3175 3174 3172 3171
3199 3199 3199 3200 3199 3200 3200 3200 3200 3199 3199 3199 3198 3197 3195 3194 3192 3191 3189 3187 3185 3183 3181 3180 3178 3177 3175 3174 3174 3171 3170 3169 3168
3195 3195 3195 3196 3196 3197 3197 3197 3197 3197 3196 3196 3195 3194 3192 3191 3189 3188 3186 3184 3182 3180 3178 3176 3174 3173 3171 3169 3168 3168 3167 3165 3163
3191 3191 3192 3193 3193 3193 3194 3193 3193 3193 3193 3192 3191 3190 3189 3188 3186 3185 3183 3181 3179 3177 3175 3172 3171 3169 3167 3165 3163 3161 3162 3161 3159
3187 3187 3188 3189 3190 3190 3189 3189 3189 3189 3189 3188 3188 3187 3186 3184 3183 3181 3179 3177 3175 3173 3170 3168 3166 3164 3162 3160 3159 3158 3155 3154 3153
3183 3183 3184 3185 3186 3186 3185 3185 3185 3185 3184 3183 3183 3182 3181 3180 3179 3177 3175 3172 3170 3167 3164 3163 3161 3159 3157 3155 3153 3152 3152 3150 3144
3179 3180 3180 3180 3181 3181 3181 3180 3180 3180 3179 3178 3177 3176 3177 3175 3174 3171 3169 3166 3163 3161 3158 3157 3155 3153 3151 3150 3148 3147 3146 3146 3142
3174 3174 3174 3174 3175 3176 3175 3175 3174 3174 3173 3172 3170 3169 3168 3168 3165 3164 3163 3160 3157 3154 3153 3151 3150 3148 3145 3143 3141 3140 3140 3139 3140
3168 3168 3168 3169 3169 3169 3169 3168 3168 3167 3167 3166 3165 3163 3161 3159 3155 3154 3155 3153 3151 3149 3147 3145 3143 3141 3139 3136 3135 3133 3133 3132 3133
3161 3161 3162 3162 3162 3163 3162 3162 3161 3160 3160 3159 3157 3157 3154 3152 3149 3145 3146 3146 3144 3143 3141 3139 3137 3135 3132 3130 3128 3127 3125 3125 3125
Wind_Speed
14 14 14 14 15 14 15 15 15 15 15 15 15 14 14 13 13 12 12 11 11 10 10 10 10 9 9 9 9 8 7 5 7
15 14 14 14 15 14 14 14 14 13 12 12 11 12 11 11 11 11 11 10 11 11 10 9 9 8 8 8 7 7 7 7 6
15 15 15 14 13 13 13 13 13 13 13 12 13 12 12 12 11 11 11 12 11 11 11 11 10 9 8 8 7 7 8 8 8
17 17 17 15 14 14 14 14 14 13 13 13 12 12 11 11 11 11 11 11 11 12 11 11 10 9 8 7 8 8 8 9 9
16 17 17 16 17 16 16 15 14 14 13 12 11 10 10 9 9 9 9 10 10 10 11 12 12 11 9 8 8 8 9 10 10
14 13 13 11 11 10 9 8 7 7 6 6 7 7 8 8 8 9 9 9 10 10 11 11 12 12 10 10 9 9 9 9 10
9 7 6 5 4 3 2 1 1 2 3 4 5 6 7 8 8 9 10 11 11 12 12 12 13 13 13 12 11 11 10 10 10
8 6 5 5 4 4 4 4 4 5 6 7 8 9 10 10 10 11 12 13 14 14 14 14 14 15 14 14 13 12 12 12 11
10 10 9 9 8 8 8 8 8 8 8 9 10 11 12 13 13 13 14 15 16 16 16 16 16 17 17 17 16 15 14 14 14
15 14 13 13 12 12 11 11 11 11 11 12 12 13 13 14 15 16 17 17 18 18 18 18 19 19 20 20 20 18 18 17 17
18 18 17 16 15 14 13 13 13 13 13 14 14 14 14 16 16 18 19 20 20 21 22 22 22 23 23 23 23 22 21 20 20
22 21 20 18 17 15 15 15 15 15 16 15 15 15 15 16 16 18 19 21 21 22 23 23 23 23 24 24 22 23 23 23 23
23 22 20 18 17 16 16 16 16 16 16 17 17 17 17 17 18 20 21 21 23 24 24 25 24 24 23 24 23 21 21 23 24
21 20 19 17 17 17 17 17 17 18 19 20 20 21 20 20 21 23 23 23 24 25 27 27 26 27 26 25 26 27 24 23 23
21 20 19 19 19 18 18 19 20 21 22 23 24 24 24 24 24 25 25 26 27 29 30 29 28 28 28 29 28 27 29 29 26
21 21 21 20 20 20 22 22 23 24 25 27 27 27 27 27 27 27 28 30 31 35 33 30 31 31 31 32 32 32 30 28 35
21 20 21 22 23 24 25 26 27 27 28 30 32 32 31 30 29 30 32 32 31 28 29 30 31 32 33 34 34 32 29 25 30
25 26 27 27 27 27 28 28 29 30 32 32 34 36 36 35 37 33 30 28 28 28 26 28 28 29 33 31 31 31 29 25 28
31 30 31 31 31 32 32 33 33 34 34 35 36 38 39 39 39 35 25 26 27 27 26 26 27 30 31 31 32 29 30 29 26
32 32 33 34 36 35 34 35 36 37 37 38 40 40 39 36 35 34 29 29 27 26 25 26 27 29 31 31 30 30 29 28 27
Wind_Direction
106 105 102 102 100 98 96 95 92 88 84 80 78 76 74 73 69 63 58 52 45 41 37 31 33 30 26 24 26 30 23 0 5
109 107 106 104 101 99 98 95 90 85 80 76 74 71 68 64 58 53 48 42 37 30 22 18 16 14 13 9 3 359 350 347 348
110 110 106 103 102 99 94 90 86 82 79 76 70 67 63 60 55 51 46 38 31 25 19 12 3 0 358 350 345 344 337 338 339
107 102 98 96 94 91 88 82 79 76 72 67 63 60 56 52 46 40 35 30 26 23 16 10 6 358 348 338 336 331 331 333 334
100 96 91 90 86 86 84 83 81 76 72 65 57 49 43 38 31 23 18 13 10 6 2 2 1 355 344 337 330 327 326 327 327
102 96 91 80 77 75 80 87 87 79 65 54 41 32 23 16 8 3 358 355 350 346 346 347 348 349 344 336 330 328 327 324 320
134 130 129 119 122 128 119 89 40 357 352 339 333 331 328 330 333 337 336 334 333 331 331 329 329 334 336 334 328 326 322 316 310
192 205 213 225 237 253 265 275 284 294 302 306 307 305 303 303 307 314 318 320 319 319 318 316 318 320 323 322 321 319 314 309 304
223 235 242 248 253 261 267 274 281 286 291 295 295 294 295 299 303 304 306 308 309 308 307 308 310 311 309 306 307 307 307 306 304
236 243 249 254 258 263 270 274 280 281 284 288 292 294 297 299 302 304 305 305 303 302 302 304 304 303 301 299 298 298 299 300 301
244 249 251 255 261 265 266 269 274 279 281 286 290 293 297 300 303 305 303 301 300 301 302 301 299 298 296 295 296 295 294 294 295
248 251 253 255 257 259 261 267 272 276 281 285 289 295 299 302 304 306 306 305 306 305 305 304 302 299 297 294 292 293 294 294 295
249 250 250 251 254 257 260 268 270 274 276 283 290 294 297 298 302 308 307 305 304 303 303 301 300 299 297 296 297 294 293 294 294
241 245 248 252 254 258 263 265 268 272 278 284 288 293 295 296 300 304 304 299 297 298 298 296 295 294 294 295 296 298 292 288 288
239 243 247 251 256 258 259 262 267 274 279 281 286 291 291 295 296 299 297 293 292 292 293 290 289 289 291 294 295 295 296 295 289
238 244 249 252 254 258 263 267 269 273 278 282 286 288 290 292 292 293 293 291 291 289 284 280 283 285 287 289 290 290 291 292 298
240 245 251 254 256 261 266 269 271 276 278 281 285 287 288 289 288 288 288 288 291 287 278 278 281 283 286 289 288 286 290 287 284
245 247 250 254 260 266 269 270 272 274 276 280 283 287 290 293 292 291 291 290 291 285 276 280 283 284 291 287 291 285 290 285 273
253 255 257 259 263 269 269 268 270 274 277 278 283 286 290 292 294 294 297 295 293 284 285 289 289 288 292 287 289 287 287 285 274
253 255 258 261 266 267 265 266 270 273 275 280 282 285 287 289 291 292 293 294 293 292 291 291 290 289 289 289 286 286 287 285 282